Dewpoint
58 56 53 51 38 37 33 33 27 28 27 31 31 30 30 41 52 48 60 67 69 71 73 74 75 76 76 75 75 74 74 73 73 72 71 70 69 67 67 67 68 69 69 67 67 66 65 65 64
61 57 52 45 36 31 30 30 27 30 31 31 30 31 38 53 58 59 62 67 69 71 71 72 75 75 75 75 75 74 74 73 72 71 69 67 67 67 67 67 68 70 69 67 66 65 65 65 63
58 56 50 41 38 32 30 30 28 30 30 31 31 32 44 51 58 60 63 66 69 69 71 73 75 75 75 75 74 74 73 73 71 69 67 67 68 68 69 69 70 70 68 66 66 65 65 65 63
51 52 46 40 36 36 34 32 31 30 30 31 31 47 54 58 59 62 64 68 68 68 71 74 75 75 75 74 74 73 72 71 69 68 67 69 70 70 70 71 70 70 68 66 66 66 65 65 64
54 51 41 38 37 37 35 32 28 29 30 31 30 44 55 60 62 61 63 66 68 70 72 74 75 75 74 74 74 73 72 70 68 67 67 70 71 70 70 69 69 69 67 66 66 65 65 66 65
51 51 42 36 36 37 36 29 27 28 29 28 37 52 57 61 60 61 63 67 69 70 72 73 74 74 74 74 73 72 72 70 69 68 67 70 70 69 69 69 68 68 67 66 65 65 65 65 65
49 45 42 38 36 37 37 31 27 28 29 29 30 52 58 62 64 62 64 68 68 70 71 73 73 72 72 73 72 72 72 71 70 69 68 69 70 69 68 68 67 67 66 66 65 65 65 65 65
52 49 41 41 39 37 37 31 29 28 28 30 34 52 57 62 65 65 63 67 68 68 70 71 71 71 71 71 71 71 71 70 70 69 67 66 68 68 69 68 68 66 65 65 65 65 65 66 65
49 45 41 41 41 40 40 38 32 31 29 33 48 55 62 64 65 64 62 63 66 67 68 70 69 70 70 70 70 70 70 69 68 68 66 64 63 65 66 66 67 67 66 64 64 65 66 66 65
42 42 38 38 41 41 39 37 38 29 29 34 53 62 63 64 63 63 62 62 62 63 65 67 68 69 69 68 69 68 69 67 67 65 63 61 61 62 63 63 65 67 66 66 65 66 67 65 61
40 38 40 40 41 45 40 35 35 30 31 30 46 59 62 63 62 62 62 62 61 62 63 64 66 67 67 67 68 67 68 67 66 65 62 62 60 59 61 62 64 64 64 64 65 66 64 62 59
36 38 38 39 40 44 40 32 31 31 34 39 38 55 59 61 62 62 62 62 62 63 63 63 65 65 64 67 66 66 66 66 66 65 63 63 59 59 61 62 62 62 63 62 62 63 62 61 59
40 38 36 37 39 38 35 33 32 31 38 38 38 42 55 59 60 62 62 63 63 63 63 64 64 63 61 64 63 61 63 63 62 63 64 63 61 57 60 61 61 62 62 61 61 62 62 60 58
40 40 39 37 39 38 34 34 32 32 36 36 37 37 37 44 57 58 59 60 63 63 63 64 64 65 66 62 58 58 59 60 59 61 64 63 62 57 57 58 59 59 60 60 59 60 60 59 57
43 38 39 37 38 38 36 32 32 34 34 34 35 34 35 35 38 55 59 59 60 62 63 64 64 65 65 65 65 65 62 61 60 59 61 62 61 59 58 57 58 57 58 58 57 58 57 57 56
40 36 34 35 38 38 33 30 34 35 36 34 33 32 33 33 33 36 40 48 55 59 62 64 64 65 65 65 65 65 66 66 63 61 60 59 59 60 60 59 58 60 60 60 60 57 56 56 55
39 35 34 33 37 37 33 32 33 34 34 33 33 32 31 30 30 31 32 34 38 42 43 57 64 65 65 65 65 65 66 66 66 66 62 60 59 60 60 60 59 59 61 60 60 60 57 55 54
36 33 32 32 33 34 34 33 33 31 33 33 32 30 30 29 29 31 33 34 35 35 37 39 45 62 65 65 65 65 64 65 66 66 66 65 61 60 60 60 60 59 60 61 60 59 59 56 54
35 34 30 31 33 33 32 33 33 33 30 30 31 31 29 29 30 31 30 30 31 32 33 35 38 39 43 51 63 64 64 63 64 65 65 65 66 63 62 61 61 60 58 58 61 60 58 58 54
33 32 30 28 30 32 32 32 34 33 31 31 31 31 30 30 29 30 30 32 37 41 41 39 38 38 40 43 44 63 65 64 65 65 65 65 64 65 64 62 62 61 59 58 60 60 58 58 55
34 32 29 26 31 30 29 29 31 31 30 31 30 30 29 30 31 33 37 40 42 43 44 43 38 38 39 40 43 45 61 62 62 62 62 64 64 64 64 63 62 61 61 59 58 60 59 58 56
32 32 30 30 29 26 28 22 24 28 28 27 26 27 29 33 34 37 38 41 43 44 45 44 43 38 38 39 40 41 43 47 57 62 63 63 64 63 63 63 63 62 61 61 61 61 61 59 57
34 35 30 31 28 27 26 23 23 27 26 26 26 28 33 33 36 38 40 43 45 46 45 44 43 41 41 39 39 41 41 44 46 48 54 61 63 64 63 63 62 61 60 60 60 59 60 60 60
42 35 32 31 31 24 27 25 22 25 26 26 30 35 36 38 38 39 41 44 45 46 46 45 44 43 44 44 44 42 40 41 43 44 47 52 56 58 60 62 61 61 62 61 60 61 61 60 60
39 35 28 26 22 21 26 25 24 25 26 28 33 35 37 39 40 41 42 43 44 44 43 44 44 43 43 44 45 46 47 47 46 46 46 46 48 52 52 58 59 59 60 61 61 61 60 60 60
35 32 23 18 20 22 22 24 23 23 27 31 33 34 37 40 41 42 41 42 41 41 41 42 41 42 43 44 45 47 47 48 49 49 49 50 50 50 51 53 55 57 59 60 60 59 60 60 59
36 33 31 24 22 20 21 21 21 28 30 31 33 35 38 40 41 39 41 40 39 40 41 41 41 42 43 44 45 46 47 48 48 47 48 48 48 49 49 50 50 52 52 54 56 57 58 57 58
39 37 29 27 18 17 18 18 19 25 28 29 32 34 38 40 39 39 39 39 39 40 40 39 39 39 40 42 43 42 43 42 41 40 39 41 41 43 45 48 48 48 48 49 50 50 51 54 49
36 35 32 27 23 18 13 14 20 23 27 27 30 33 39 39 38 39 37 38 39 38 38 36 36 37 38 39 39 38 39 39 38 37 36 35 34 35 35 38 39 39 40 42 44 44 44 44 43
35 34 33 24 22 21 20 19 22 23 27 27 31 36 40 38 38 37 36 37 37 36 36 35 35 36 37 38 38 37 36 36 36 36 35 34 33 33 33 33 33 34 34 35 38 39 40 40 39
Lifted_Index
1 2 3 3 4 4 4 4 4 5 5 6 5 4 1 -1 -1 -0 -1 -2 -3 -4 -4 -4 -5 -5 -4 -4 -3 -2 -2 -1 -1 0 1 2 2 3 3 3 2 2 2 3 4 4 4 5 5
0 1 2 3 4 4 4 4 4 5 5 5 5 4 1 -1 -2 -1 -2 -3 -3 -3 -4 -4 -5 -5 -4 -4 -3 -2 -2 -1 -0 1 2 2 2 2 2 2 2 1 2 3 4 4 4 5 5
0 1 2 3 4 4 4 4 4 5 5 5 4 3 1 -1 -2 -2 -3 -3 -3 -3 -4 -4 -5 -5 -4 -3 -3 -2 -1 -1 0 1 2 2 1 1 1 1 1 1 2 3 3 4 4 4 5
1 1 2 3 4 4 3 3 4 5 5 4 3 2 -0 -2 -3 -3 -3 -4 -4 -3 -4 -5 -5 -4 -4 -3 -3 -2 -1 -0 1 1 2 1 0 0 0 0 1 1 2 3 3 3 4 4 4
2 2 2 3 4 3 3 3 4 5 5 4 2 0 -2 -2 -3 -3 -3 -4 -4 -4 -4 -5 -5 -4 -4 -3 -3 -2 -1 0 1 2 1 0 -0 0 1 1 1 2 2 3 3 3 3 3 3
1 1 2 3 3 2 2 3 4 5 4 4 2 -0 -2 -3 -3 -3 -3 -4 -4 -4 -5 -5 -5 -4 -4 -3 -3 -2 -1 -0 1 1 1 0 0 1 1 1 1 2 2 3 3 3 3 3 3
1 1 1 2 2 1 1 2 4 4 4 4 2 -0 -3 -3 -3 -3 -3 -4 -4 -4 -4 -4 -4 -4 -3 -3 -2 -2 -1 -1 0 1 2 1 1 1 1 2 2 2 2 3 3 3 3 3 3
0 1 1 1 1 1 1 1 3 4 4 4 2 -1 -3 -4 -3 -3 -3 -4 -4 -4 -4 -4 -3 -3 -3 -2 -2 -2 -1 -0 0 1 2 2 2 1 1 2 2 2 3 3 3 3 3 3 3
0 1 1 1 1 1 0 1 2 3 3 3 0 -2 -3 -4 -4 -3 -3 -4 -4 -4 -3 -3 -3 -2 -2 -2 -2 -1 -1 0 1 2 3 3 3 3 2 2 2 2 3 3 3 3 3 3 3
0 1 2 1 1 1 1 1 2 2 3 2 -1 -3 -3 -4 -4 -4 -4 -3 -3 -3 -3 -3 -2 -2 -2 -2 -1 -1 -1 0 1 2 3 4 4 4 4 3 3 2 2 3 2 2 2 3 4
1 2 2 1 1 1 1 1 2 2 3 3 0 -2 -3 -3 -4 -4 -4 -4 -3 -3 -3 -3 -2 -2 -2 -2 -1 -1 -1 0 1 1 2 3 4 4 4 4 3 3 2 2 2 2 2 4 4
2 2 2 1 1 2 1 1 2 2 3 3 1 -1 -2 -3 -3 -3 -4 -3 -3 -3 -3 -3 -2 -2 -2 -2 -1 -1 -0 0 0 1 1 2 2 3 3 3 3 3 3 3 2 2 3 3 4
1 1 1 1 1 1 1 1 1 2 2 2 2 0 -1 -2 -2 -3 -3 -3 -3 -3 -3 -3 -2 -2 -2 -2 -1 -0 0 0 1 1 1 1 1 2 2 2 3 3 3 3 2 2 2 3 3
0 0 1 1 1 1 1 1 1 1 2 2 2 2 1 0 -1 -2 -3 -3 -3 -3 -3 -3 -2 -2 -2 -1 -0 0 1 0 1 1 0 0 0 0 1 1 2 2 2 2 2 2 2 2 2
-0 -0 0 1 1 1 1 1 1 1 2 2 2 3 3 3 2 -0 -2 -2 -3 -3 -3 -3 -3 -2 -2 -2 -1 -0 0 -0 -0 -0 -0 -0 -0 0 0 1 1 2 2 2 2 2 2 1 1
-0 -0 0 1 1 1 2 2 2 2 2 2 2 3 3 4 4 3 2 1 -1 -2 -2 -3 -3 -3 -2 -2 -2 -2 -1 -2 -1 -1 -1 -1 -0 -0 0 0 1 1 1 1 1 2 2 2 1
0 0 0 1 1 1 1 2 2 2 2 2 2 2 3 4 4 5 5 4 3 2 1 -1 -2 -3 -3 -3 -2 -2 -2 -2 -2 -2 -2 -1 -1 -1 -0 -0 0 0 1 1 1 1 1 1 2
1 1 1 1 1 1 1 1 2 2 3 2 2 3 3 4 5 5 6 6 6 5 4 2 1 -1 -2 -2 -3 -3 -2 -2 -2 -2 -2 -2 -2 -2 -1 -1 -1 -0 -0 0 -0 -0 0 1 1
1 1 1 1 1 1 1 1 2 2 3 3 3 3 3 4 5 6 6 7 7 6 6 5 4 3 2 0 -1 -2 -3 -3 -3 -3 -3 -3 -2 -2 -2 -2 -1 -1 -1 -1 -1 -1 -0 -0 -0
1 1 1 1 1 1 1 2 2 2 3 3 3 3 4 4 5 6 6 7 7 7 7 7 6 6 5 4 3 1 -1 -2 -3 -3 -3 -3 -2 -2 -2 -2 -2 -2 -1 -1 -1 -1 -1 -1 -1
1 1 1 1 1 1 1 2 2 3 3 3 3 4 4 5 5 6 6 6 7 7 8 8 8 7 7 7 6 5 2 0 -1 -3 -3 -2 -2 -2 -1 -1 -1 -1 -1 -1 -1 -1 -1 -1 -1
1 1 1 1 1 1 2 2 3 3 3 3 3 4 4 5 6 6 6 6 7 8 9 9 9 9 9 8 8 7 6 4 2 0 -1 -1 -2 -2 -1 -1 -1 -1 -1 -1 -2 -1 -1 -1 -1
1 1 1 1 1 1 2 2 3 4 4 4 3 4 5 5 6 6 7 7 7 8 9 9 9 10 10 9 9 9 8 8 6 5 4 1 -0 -1 -1 -1 -1 -1 -1 -1 -1 -1 -1 -1 -1
0 0 1 1 1 1 2 2 3 4 4 4 4 4 5 5 6 6 7 7 7 8 8 9 9 10 10 9 9 9 9 9 9 8 7 5 2 1 0 -1 -1 -1 -1 -1 -1 -1 -1 -1 -1
0 0 0 1 1 1 2 2 3 4 4 4 4 4 5 5 5 6 6 7 7 8 8 9 9 9 9 9 9 9 9 9 9 9 8 7 5 3 2 1 0 -0 -0 -0 -0 -0 -1 -1 -1
1 1 1 1 1 1 2 2 3 4 4 4 4 4 5 5 5 6 6 7 7 8 8 9 9 9 9 9 9 9 9 9 9 9 8 8 7 5 4 3 2 1 1 1 1 1 0 -0 -1
1 1 1 1 1 1 2 2 3 4 4 4 4 5 5 5 5 6 6 7 7 8 8 8 9 9 9 9 9 9 9 9 9 9 9 9 8 8 7 6 4 4 3 3 2 2 2 1 1
1 1 1 1 1 1 1 2 3 3 4 4 4 4 5 5 5 6 6 7 7 7 8 8 9 9 9 9 9 9 9 9 9 9 9 9 9 9 9 8 7 6 6 5 5 5 4 4 3
1 1 1 1 0 0 1 2 3 3 4 4 5 5 5 5 5 6 6 7 7 8 8 9 9 10 10 10 10 10 10 10 10 10 10 10 10 10 10 9 9 9 8 8 7 7 7 6 5
1 1 1 1 0 0 1 2 3 4 4 4 5 5 5 5 5 6 6 6 7 8 8 9 10 10 10 10 10 11 11 10 10 10 10 10 10 10 10 10 9 9 9 9 9 8 8 7 6